Zurück zum Katalog

STARLINK-31661

AktivKommunikationVLEO
NORAD 59735·PAYLOAD·🇺🇸 United States

Gestartet May 13, 2024 von Cape Canaveral Space Force Station

Loading…

Nächste Überflüge (nächste 24 Stunden)

TLE

AktuellSource: CelesTrak SupGP

Epoche: Sep 14, 2026, 22:13 UTC

1 59735C 24090F   26257.92618056 -.00003954  00000+0 -14311-3 0  2575
2 59735  43.0028 187.7450 0001125 267.8929  63.2596 15.27607265    15

Verfolge STARLINK-31661 in Echtzeit mit AllMySat

Download on the App Store